カタログに戻る

NOAA 17 DEB

運用中PO
NORAD 48753·DEBRIS·🇺🇸 United States

打ち上げ Jun 24, 2002 から Vandenberg Space Force Base

Loading…

次のパス (今後24時間)

TLE

最新Source: Space-Track

元期: Sep 14, 2026, 04:57 UTC

1 48753U 02032CN  26257.20678018  .00005908  00000-0  12146-2 0  9996
2 48753  98.7430 253.3563 0018461 270.7933  89.1151 14.60890810286523

AllMySatでNOAA 17 DEBをリアルタイム追跡

Download on the App Store